EW5040 Weather Reports


Display with metric or nautical units.
time (UTC)temp
F
wind
direction
speed
MPH
gust
MPH
rain 1hr
in
rain 24hr
in
rain mn
in
humidity
%
barometer
mb
20200404001531 42 250 2.0 3.0 0.00 0.00 0.00 83 1016.7
20200404000046 42 250 1.0 3.0 0.00 0.00 0.00 83 1016.7
20200403234603 42 242 3.0 5.0 0.00 0.00 0.00 82 1016.7
20200403233105 42 243 2.0 6.0 0.00 0.00 0.00 82 1016.6
20200403231528 42 252 2.0 8.0 0.00 0.00 0.00 82 1016.5
20200403230035 42 246 3.0 10.0 0.00 0.00 0.00 81 1016.5
20200403224530 42 219 3.0 7.0 0.00 0.00 0.00 81 1016.4
20200403223037 43 251 3.0 9.0 0.00 0.00 0.00 82 1016.3
20200403221535 43 269 3.0 9.0 0.00 0.00 0.00 83 1016.2
20200403220031 43 220 3.0 6.0 0.00 0.00 0.00 84 1016.0
20200403214526 43 229 3.0 7.0 0.00 0.00 0.00 85 1015.9
20200403213021 43 200 3.0 7.0 0.00 0.00 0.00 85 1015.8
20200403211521 44 264 3.0 7.0 0.00 0.00 0.00 85 1015.8
20200403210033 44 204 2.0 7.0 0.00 0.00 0.00 82 1015.8
20200403204538 46 226 2.0 7.0 0.00 0.00 0.00 80 1015.6
20200403203027 47 204 3.0 7.0 0.00 0.00 0.00 76 1015.6
20200403201517 47 294 2.0 6.0 0.00 0.00 0.00 77 1015.6
20200403200014 46 318 2.0 8.0 0.00 0.00 0.00 79 1015.7
20200403194551 46 40 2.0 6.0 0.00 0.00 0.00 79 1015.7
20200403193012 45 328 3.0 8.0 0.00 0.00 0.00 79 1015.7
20200403191509 45 336 3.0 8.0 0.00 0.00 0.00 80 1015.7
20200403190028 44 347 3.0 9.0 0.00 0.00 0.00 80 1015.7
20200403184511 44 337 3.0 11.0 0.00 0.00 0.00 82 1015.7
20200403183006 43 281 2.0 9.0 0.00 0.00 0.00 83 1015.7
20200403181506 43 285 4.0 10.0 0.00 0.00 0.00 82 1015.7
20200403180011 44 12 4.0 9.0 0.00 0.00 0.00 80 1015.7
20200403174510 44 360 4.0 11.0 0.00 0.00 0.00 78 1015.8
20200403173003 44 313 3.0 8.0 0.00 0.00 0.00 77 1015.8
20200403171501 44 293 3.0 10.0 0.00 0.00 0.00 76 1015.8
20200403170014 44 330 6.0 11.0 0.00 0.00 0.00 74 1015.8
20200403164635 44 307 3.0 11.0 0.00 0.00 0.00 76 1015.7
20200403163132 44 305 5.0 11.0 0.00 0.00 0.00 73 1015.7
20200403161620 44 313 2.0 10.0 0.00 0.00 0.00 74 1015.7
20200403160141 43 336 2.0 11.0 0.00 0.00 0.00 75 1015.8
20200403154733 43 330 4.0 11.0 0.00 0.00 0.00 75 1016.1
20200403153146 42 38 2.0 13.0 0.00 0.00 0.00 75 1016.2
20200403151603 42 346 3.0 10.0 0.00 0.00 0.00 73 1016.0
20200403150056 41 54 3.0 11.0 0.00 0.00 0.00 74 1015.8
20200403144632 41 331 2.0 13.0 0.00 0.00 0.00 73 1015.7
20200403143058 41 304 6.0 12.0 0.00 0.00 0.00 74 1015.4
20200403141615 41 346 6.0 14.0 0.00 0.00 0.00 73 1015.5
20200403140152 41 316 3.0 11.0 0.00 0.00 0.00 74 1015.4
20200403134648 41 343 3.0 14.0 0.00 0.00 0.00 74 1015.4
20200403133143 41 327 4.0 10.0 0.00 0.00 0.00 74 1015.2
20200403131620 40 322 6.0 13.0 0.00 0.00 0.00 74 1015.0
20200403130037 40 331 4.0 14.0 0.00 0.00 0.00 76 1015.1
20200403124528 39 22 3.0 13.0 0.00 0.00 0.00 78 1015.0
20200403123030 38 315 3.0 12.0 0.00 0.00 0.00 78 1015.1
20200403121537 38 316 6.0 12.0 0.00 0.00 0.00 79 1015.0
20200403120058 36 336 2.0 9.0 0.00 0.00 0.00 82 1014.9
20200403114539 35 288 2.0 8.0 0.00 0.00 0.00 83 1014.8
20200403113054 35 331 2.0 7.0 0.00 0.00 0.00 83 1014.9
20200403111553 35 294 1.0 6.0 0.00 0.00 0.00 83 1014.8
20200403110024 35 323 2.0 7.0 0.00 0.00 0.00 82 1014.7
20200403104509 35 281 2.0 4.0 0.00 0.00 0.00 82 1014.8
20200403103033 35 312 1.0 3.0 0.00 0.00 0.00 81 1014.7
20200403101505 35 305 1.0 3.0 0.00 0.00 0.00 81 1014.7
20200403100019 35 316 1.0 5.0 0.00 0.00 0.00 81 1014.6
20200403094516 35 280 1.0 3.0 0.00 0.00 0.00 80 1014.5
20200403093002 35 305 0.0 5.0 0.00 0.00 0.00 79 1014.4
20200403091711 35 320 0.0 4.0 0.00 0.00 0.00 78 1014.2
20200403090136 35 291 0.0 3.0 0.00 0.00 0.00 77 1014.2
20200403084651 36 289 0.0 2.0 0.00 0.00 0.00 74 1014.0
20200403083203 36 289 0.0 1.0 0.00 0.00 0.00 72 1014.0
20200403081805 37 254 0.0 4.0 0.00 0.00 0.00 72 1014.0
20200403080212 37 315 1.0 3.0 0.00 0.00 0.00 71 1014.1
20200403074714 38 324 1.0 5.0 0.00 0.00 0.00 70 1014.2
20200403073146 38 306 3.0 6.0 0.00 0.00 0.00 69 1014.1
20200403071556 38 311 1.0 3.0 0.00 0.00 0.00 67 1014.1
20200403070151 39 321 3.0 6.0 0.00 0.00 0.00 64 1014.1
20200403064555 40 321 2.0 5.0 0.00 0.00 0.00 61 1014.1
20200403063059 40 318 0.0 9.0 0.00 0.00 0.00 60 1014.3
20200403061540 40 308 3.0 8.0 0.00 0.00 0.00 60 1014.3
20200403060105 40 340 2.0 8.0 0.00 0.00 0.00 59 1014.4
20200403054543 40 344 1.0 6.0 0.00 0.00 0.00 61 1014.4
20200403053024 40 324 3.0 10.0 0.00 0.00 0.00 62 1014.4
20200403051546 41 343 3.0 6.0 0.00 0.00 0.00 61 1014.4
20200403050034 41 340 2.0 10.0 0.00 0.00 0.00 60 1014.5
20200403044529 41 326 4.0 10.0 0.00 0.00 0.00 58 1014.5
20200403043037 42 282 5.0 12.0 0.00 0.00 0.00 55 1014.5
20200403041527 42 328 5.0 14.0 0.00 0.00 0.00 53 1014.6
20200403040017 42 298 3.0 11.0 0.00 0.00 0.00 53 1014.6
20200403034542 42 322 5.0 12.0 0.00 0.00 0.00 52 1014.5
20200403033040 42 312 4.0 10.0 0.00 0.00 0.00 50 1014.5
20200403031515 43 344 3.0 9.0 0.00 0.00 0.00 49 1014.6
20200403030016 43 309 3.0 8.0 0.00 0.00 0.00 48 1014.6
20200403024524 43 309 2.0 11.0 0.00 0.00 0.00 47 1014.7
20200403023015 43 327 4.0 10.0 0.00 0.00 0.00 46 1014.8
20200403021521 44 309 4.0 10.0 0.00 0.00 0.00 45 1014.7
20200403020009 43 18 3.0 10.0 0.00 0.00 0.00 48 1014.7
20200403014510 40 5 4.0 12.0 0.00 0.00 0.00 55 1014.7
20200403013004 37 321 2.0 6.0 0.00 0.00 0.00 74 1014.6
20200403011504 37 281 0.0 0.0 0.00 0.00 0.00 82 1014.6
20200403010004 38 281 0.0 2.0 0.00 0.00 0.00 82 1014.5
20200403004510 39 281 0.0 0.0 0.00 0.00 0.00 83 1014.2
20200403003159 40 245 0.0 0.0 0.00 0.00 0.00 81 1014.0